Regional Weather Roundup
Issued by NWS

Home | Current Version | Previous Version | Text Only | Print | Product List | Glossary Off
Versions: 1 2 3 4 5 6 7 8 9 10 11 12 13 14 15 16 17 18 19 20 21 22 23 24 25 26 27 28 29 30 31 32 33 34 35 36 37 38 39 40 41 42 43 44 45 46 47 48 49 50

386
ASUS45 KBOI 080410
RWRID

IDAHO REGIONAL WEATHER ROUNDUP
NATIONAL WEATHER SERVICE BOISE ID
900 PM MST SUN FEB 07 2016

NOTE: "FAIR" INDICATES FEW OR NO CLOUDS BELOW 12000 FEET
WITH NO SIGNIFICANT WEATHER AND/OR OBSTRUCTIONS TO VISIBILITY

IDZ012-014-080500-
SOUTHWEST IDAHO


CITY           SKY/WX    TMP DP  RH WIND       PRES   REMARKS
BOISE          CLEAR     37  33  85 CALM      30.63S
CALDWELL       CLEAR     36  31  82 CALM      30.65
MOUNTAIN HOME  CLEAR     33  33 100 E7        30.65R WCI  27
$$

IDZ016-017-080500-
SOUTHCENTRAL IDAHO


CITY           SKY/WX    TMP DP  RH WIND       PRES   REMARKS
BURLEY         CLEAR     27  25  92 NW3       30.62S
JEROME         CLOUDY    32  28  85 E6        30.64R WCI  26
TWIN FALLS     CLEAR     34  31  88 S9        30.63R WCI  27
$$

IDZ019>023-080500-
SOUTHEAST IDAHO


CITY           SKY/WX    TMP DP  RH WIND       PRES   REMARKS
IDAHO FALLS    FOG       22  20  92 N9        30.65R VSB 1/2 WCI  12
POCATELLO      FOG       25  24  96 N3        30.65S VSB 1/4
REXBURG        CLOUDY    24  23  96 CALM      30.64R FOG
$$

IDZ006-010-011-018-031-032-080500-
CENTRAL IDAHO MOUNTAINS


CITY           SKY/WX    TMP DP  RH WIND       PRES   REMARKS
MCCALL         FOG       22  20  92 CALM      30.60S VSB 3/4
HAILEY         PTCLDY    25  18  74 NW5       30.61S WCI  19
STANLEY          N/A     20  14  77 SE5       30.63R WCI  13
SALMON         CLOUDY    14  10  85 CALM      30.67R
CHALLIS        CLEAR     13   9  84 CALM      30.63R
$$

IDZ002-004-006-007-026-080500-
NORTHERN IDAHO


CITY           SKY/WX    TMP DP  RH WIND       PRES   REMARKS
LEWISTON       PTCLDY    37  31  78 SE5       30.65R WCI  33
LOWELL           N/A     36  34  92 N5        30.70R WCI  32
COEUR D`ALENE  CLOUDY    36  28  75 NE6       30.61S WCI  31
MULLAN PASS    CLOUDY    28  16  60 W6        30.56R WCI  22
$$




USA.gov is the U.S. government's official web portal to all federal, state and local government web resources and services.